Tracking 23099 objects as of 13-May-2021
HD Live streaming from Space Station
objects crossing your sky now

INTELSAT 3-F3

Track INTELSAT 3-F3 now!
INTELSAT 3-F3 is classified as:


NORAD ID: 3674
Int'l Code: 1969-011A
Perigee: 39,905.8 km
Apogee: 41,552.4 km
Inclination: 14.3 °
Period: 1,695.5 minutes
Semi major axis: 47100 km
RCS: 0.4044 m2 (medium)
Launch date: February 6, 1969
Source: International Telecommunications Satellite Organization (ITSO)
Launch site: AIR FORCE EASTERN TEST RANGE (AFETR)
aabbcc
Your satellite tracking list
Your tracking list is empty




NASA's NSSDC Master Catalog

Two Line Element Set (TLE):
1  3674U 69011A   21132.91092372 -.00000193  00000-0  00000+0 0  9992
2  3674  14.2666 315.1949 0174805 327.9297  41.1897  0.84931746181713
Source of the keplerian elements: AFSPC